Time,TemperatureF,DewpointF,PressureIn,WindDirection,WindDirectionDegrees,WindSpeedMPH,WindSpeedGustMPH,Humidity,HourlyPrecipIn,Conditions,Clouds,dailyrainin,SoftwareType,DateUTC
2013-02-06 00:01:00,43.0,40.0,30.05,South,189,6.0,-999.0,90,-99.99,,,-99.99,,2013-02-06 08:01:00,
2013-02-06 00:11:00,43.0,40.0,30.05,South,189,6.0,-999.0,90,-99.99,,,-99.99,,2013-02-06 08:11:00,
2013-02-06 00:21:00,43.0,40.0,30.05,South,190,5.0,-999.0,90,-99.99,,,-99.99,,2013-02-06 08:21:00,
2013-02-06 00:31:00,43.0,40.0,30.06,SSW,201,4.0,-999.0,90,-99.99,,,-99.99,,2013-02-06 08:31:00,
2013-02-06 00:41:00,43.0,40.0,30.06,SSW,201,4.0,-999.0,90,-99.99,,,-99.99,,2013-02-06 08:41:00,
2013-02-06 00:53:00,43.0,41.0,30.06,SSW,194,4.0,-999.0,91,-99.99,,,-99.99,,2013-02-06 08:53:00,
2013-02-06 01:01:00,43.0,41.0,30.06,SSW,194,4.0,-999.0,91,-99.99,,,-99.99,,2013-02-06 09:01:00,
2013-02-06 01:11:00,43.0,41.0,30.06,SSW,194,4.0,-999.0,91,-99.99,,,-99.99,,2013-02-06 09:11:00,
2013-02-06 01:21:00,43.0,41.0,30.06,SSE,164,6.0,-999.0,92,-99.99,,,-99.99,,2013-02-06 09:21:00,
2013-02-06 01:31:00,43.0,41.0,30.07,ESE,122,4.0,-999.0,93,-99.99,,,-99.99,,2013-02-06 09:31:00,
2013-02-06 01:41:00,43.0,41.0,30.07,ESE,122,4.0,-999.0,93,-99.99,,,-99.99,,2013-02-06 09:41:00,
2013-02-06 01:51:00,43.0,41.0,30.07,WNW,283,3.0,-999.0,93,-99.99,,,-99.99,,2013-02-06 09:51:00,
2013-02-06 02:01:00,42.0,40.0,30.07,WNW,288,0.0,-999.0,92,-99.99,,,-99.99,,2013-02-06 10:01:00,
2013-02-06 02:11:00,42.0,40.0,30.07,WNW,288,0.0,-999.0,92,-99.99,,,-99.99,,2013-02-06 10:11:00,
2013-02-06 02:21:00,42.0,40.0,30.08,WNW,301,0.0,-999.0,93,-99.99,,,-99.99,,2013-02-06 10:21:00,
2013-02-06 02:31:00,42.0,40.0,30.08,WNW,301,0.0,-999.0,93,-99.99,,,-99.99,,2013-02-06 10:31:00,
2013-02-06 02:41:00,42.0,40.0,30.08,WNW,301,0.0,-999.0,93,-99.99,,,-99.99,,2013-02-06 10:41:00,
2013-02-06 02:52:00,42.0,41.0,30.08,SSE,165,1.0,-999.0,95,-99.99,,,-99.99,,2013-02-06 10:52:00,
2013-02-06 03:01:00,42.0,41.0,30.08,SSE,165,1.0,-999.0,95,-99.99,,,-99.99,,2013-02-06 11:01:00,
2013-02-06 03:11:00,42.0,41.0,30.08,SSE,165,1.0,-999.0,95,-99.99,,,-99.99,,2013-02-06 11:11:00,
2013-02-06 03:21:00,43.0,42.0,30.08,SSE,157,3.0,-999.0,96,-99.99,,,-99.99,,2013-02-06 11:21:00,
2013-02-06 03:31:00,43.0,42.0,30.08,South,178,5.0,-999.0,96,-99.99,,,-99.99,,2013-02-06 11:31:00,
2013-02-06 03:42:00,43.0,42.0,30.08,South,178,5.0,-999.0,96,-99.99,,,-99.99,,2013-02-06 11:42:00,
2013-02-06 03:52:00,43.0,41.0,30.08,South,170,4.0,-999.0,94,-99.99,,,-99.99,,2013-02-06 11:52:00,
2013-02-06 04:01:00,43.0,41.0,30.08,SE,128,4.0,-999.0,93,-99.99,,,-99.99,,2013-02-06 12:01:00,
2013-02-06 04:12:00,43.0,41.0,30.08,SE,128,4.0,-999.0,93,-99.99,,,-99.99,,2013-02-06 12:12:00,
2013-02-06 04:21:00,42.0,40.0,30.09,South,177,2.0,-999.0,93,-99.99,,,-99.99,,2013-02-06 12:21:00,
2013-02-06 04:32:00,43.0,41.0,30.09,South,180,3.0,-999.0,94,-99.99,,,-99.99,,2013-02-06 12:32:00,
2013-02-06 04:41:00,43.0,41.0,30.09,South,180,3.0,-999.0,94,-99.99,,,-99.99,,2013-02-06 12:41:00,
2013-02-06 04:52:00,43.0,42.0,30.09,SSW,204,5.0,-999.0,95,-99.99,,,-99.99,,2013-02-06 12:52:00,
2013-02-06 05:01:00,43.0,41.0,30.09,South,173,6.0,-999.0,94,-99.99,,,-99.99,,2013-02-06 13:01:00,
2013-02-06 05:11:00,43.0,41.0,30.09,South,173,6.0,-999.0,94,-99.99,,,-99.99,,2013-02-06 13:11:00,
2013-02-06 05:21:00,43.0,42.0,30.09,SSW,207,5.0,-999.0,95,-99.99,,,-99.99,,2013-02-06 13:21:00,
2013-02-06 05:31:00,43.0,41.0,30.08,South,179,6.0,-999.0,94,-99.99,,,-99.99,,2013-02-06 13:31:00,
2013-02-06 05:41:00,43.0,41.0,30.08,South,179,6.0,-999.0,94,-99.99,,,-99.99,,2013-02-06 13:41:00,
2013-02-06 05:52:00,42.0,40.0,30.08,South,190,6.0,-999.0,93,-99.99,,,-99.99,,2013-02-06 13:52:00,
2013-02-06 06:01:00,42.0,40.0,30.08,South,178,6.0,-999.0,93,-99.99,,,-99.99,,2013-02-06 14:01:00,
2013-02-06 06:11:00,42.0,40.0,30.08,South,178,6.0,-999.0,93,-99.99,,,-99.99,,2013-02-06 14:11:00,
2013-02-06 06:21:00,42.0,40.0,30.08,South,169,4.0,-999.0,93,-99.99,,,-99.99,,2013-02-06 14:21:00,
2013-02-06 06:31:00,43.0,41.0,30.08,SSE,160,3.0,-999.0,93,-99.99,,,-99.99,,2013-02-06 14:31:00,
2013-02-06 06:41:00,43.0,41.0,30.08,SSE,160,3.0,-999.0,93,-99.99,,,-99.99,,2013-02-06 14:41:00,
2013-02-06 06:52:00,43.0,41.0,30.08,SW,217,3.0,-999.0,93,-99.99,,,-99.99,,2013-02-06 14:52:00,
2013-02-06 07:01:00,42.0,40.0,30.08,SSW,205,2.0,-999.0,93,-99.99,,,-99.99,,2013-02-06 15:01:00,
2013-02-06 07:11:00,42.0,40.0,30.08,SSW,194,4.0,-999.0,94,-99.99,,,-99.99,,2013-02-06 15:11:00,
2013-02-06 07:21:00,42.0,40.0,30.08,SSW,194,4.0,-999.0,94,-99.99,,,-99.99,,2013-02-06 15:21:00,
2013-02-06 07:31:00,42.0,40.0,30.08,South,179,3.0,-999.0,94,-99.99,,,-99.99,,2013-02-06 15:31:00,
2013-02-06 07:41:00,42.0,40.0,30.08,South,179,3.0,-999.0,94,-99.99,,,-99.99,,2013-02-06 15:41:00,
2013-02-06 07:52:00,42.0,40.0,30.08,SW,222,2.0,-999.0,94,-99.99,,,-99.99,,2013-02-06 15:52:00,
2013-02-06 08:01:00,42.0,41.0,30.08,South,173,1.0,-999.0,95,-99.99,,,-99.99,,2013-02-06 16:01:00,
2013-02-06 08:11:00,42.0,41.0,30.08,South,173,1.0,-999.0,95,-99.99,,,-99.99,,2013-02-06 16:11:00,
2013-02-06 08:21:00,42.0,40.0,30.08,SE,141,1.0,-999.0,94,-99.99,,,-99.99,,2013-02-06 16:21:00,
2013-02-06 08:32:00,42.0,40.0,30.08,SSW,210,2.0,-999.0,94,-99.99,,,-99.99,,2013-02-06 16:32:00,
2013-02-06 08:41:00,42.0,40.0,30.08,SSW,210,2.0,-999.0,94,-99.99,,,-99.99,,2013-02-06 16:41:00,
2013-02-06 08:52:00,43.0,41.0,30.08,SW,219,2.0,-999.0,94,-99.99,,,-99.99,,2013-02-06 16:52:00,
2013-02-06 09:01:00,43.0,41.0,30.08,SW,234,2.0,-999.0,93,-99.99,,,-99.99,,2013-02-06 17:01:00,
2013-02-06 09:11:00,43.0,41.0,30.08,SW,234,2.0,-999.0,93,-99.99,,,-99.99,,2013-02-06 17:11:00,
2013-02-06 09:21:00,44.0,42.0,30.08,SW,222,1.0,-999.0,92,-99.99,,,-99.99,,2013-02-06 17:21:00,
2013-02-06 09:32:00,44.0,42.0,30.08,South,186,3.0,-999.0,91,-99.99,,,-99.99,,2013-02-06 17:32:00,
2013-02-06 09:41:00,45.0,42.0,30.08,SE,144,3.0,-999.0,89,-99.99,,,-99.99,,2013-02-06 17:41:00,
2013-02-06 09:52:00,45.0,42.0,30.08,SE,144,3.0,-999.0,89,-99.99,,,-99.99,,2013-02-06 17:52:00,
2013-02-06 10:01:00,45.0,42.0,30.08,SE,144,3.0,-999.0,89,-99.99,,,-99.99,,2013-02-06 18:01:00,
2013-02-06 10:11:00,46.0,43.0,30.08,SSE,165,1.0,-999.0,88,-99.99,,,-99.99,,2013-02-06 18:11:00,
2013-02-06 10:22:00,46.0,43.0,30.08,SSE,165,1.0,-999.0,88,-99.99,,,-99.99,,2013-02-06 18:22:00,
2013-02-06 10:32:00,46.0,43.0,30.08,SSE,165,1.0,-999.0,88,-99.99,,,-99.99,,2013-02-06 18:32:00,
2013-02-06 10:42:00,46.0,43.0,30.08,SSE,165,1.0,-999.0,88,-99.99,,,-99.99,,2013-02-06 18:42:00,
2013-02-06 10:52:00,46.0,42.0,30.07,WSW,246,2.0,-999.0,86,-99.99,,,-99.99,,2013-02-06 18:52:00,
2013-02-06 11:01:00,46.0,42.0,30.07,SE,135,2.0,-999.0,85,-99.99,,,-99.99,,2013-02-06 19:01:00,
2013-02-06 11:11:00,46.0,42.0,30.07,SE,135,2.0,-999.0,85,-99.99,,,-99.99,,2013-02-06 19:11:00,
2013-02-06 11:21:00,47.0,43.0,30.07,South,178,3.0,-999.0,85,-99.99,,,-99.99,,2013-02-06 19:21:00,
2013-02-06 11:31:00,47.0,43.0,30.07,South,178,3.0,-999.0,85,-99.99,,,-99.99,,2013-02-06 19:31:00,
2013-02-06 11:41:00,47.0,43.0,30.07,South,178,3.0,-999.0,85,-99.99,,,-99.99,,2013-02-06 19:41:00,
2013-02-06 11:52:00,48.0,43.0,30.06,SSW,192,3.0,-999.0,83,-99.99,,,-99.99,,2013-02-06 19:52:00,
2013-02-06 12:01:00,49.0,43.0,30.05,SSW,209,3.0,-999.0,81,-99.99,,,-99.99,,2013-02-06 20:01:00,
2013-02-06 12:11:00,49.0,43.0,30.04,South,184,4.0,-999.0,81,-99.99,,,-99.99,,2013-02-06 20:11:00,
2013-02-06 12:21:00,49.0,43.0,30.04,South,184,4.0,-999.0,81,-99.99,,,-99.99,,2013-02-06 20:21:00,
2013-02-06 12:31:00,49.0,42.0,30.03,WSW,253,4.0,-999.0,78,-99.99,,,-99.99,,2013-02-06 20:31:00,
2013-02-06 12:41:00,49.0,42.0,30.03,WSW,253,4.0,-999.0,78,-99.99,,,-99.99,,2013-02-06 20:41:00,
2013-02-06 12:52:00,50.0,42.0,30.02,South,180,6.0,-999.0,75,-99.99,,,-99.99,,2013-02-06 20:52:00,
2013-02-06 13:01:00,50.0,43.0,30.02,West,264,6.0,-999.0,76,-99.99,,,-99.99,,2013-02-06 21:01:00,
2013-02-06 13:11:00,50.0,43.0,30.02,West,264,6.0,-999.0,76,-99.99,,,-99.99,,2013-02-06 21:11:00,
2013-02-06 13:21:00,51.0,43.0,30.01,SSW,205,4.0,-999.0,75,-99.99,,,-99.99,,2013-02-06 21:21:00,
2013-02-06 13:31:00,51.0,43.0,30.01,SSW,205,4.0,-999.0,75,-99.99,,,-99.99,,2013-02-06 21:31:00,
2013-02-06 13:41:00,51.0,43.0,30.01,SSW,205,4.0,-999.0,75,-99.99,,,-99.99,,2013-02-06 21:41:00,
2013-02-06 13:52:00,51.0,43.0,29.99,SSE,167,3.0,-999.0,73,-99.99,,,-99.99,,2013-02-06 21:52:00,
2013-02-06 14:01:00,51.0,43.0,29.98,SW,217,2.0,-999.0,74,-99.99,,,-99.99,,2013-02-06 22:01:00,
2013-02-06 14:11:00,51.0,43.0,29.98,SW,217,2.0,-999.0,74,-99.99,,,-99.99,,2013-02-06 22:11:00,
2013-02-06 14:21:00,52.0,43.0,29.98,WSW,249,4.0,-999.0,71,-99.99,,,-99.99,,2013-02-06 22:21:00,
2013-02-06 14:31:00,53.0,43.0,29.97,ENE,58,4.0,-999.0,69,-99.99,,,-99.99,,2013-02-06 22:31:00,
2013-02-06 14:41:00,53.0,43.0,29.97,ENE,58,4.0,-999.0,69,-99.99,,,-99.99,,2013-02-06 22:41:00,
2013-02-06 14:52:00,52.0,42.0,29.96,South,169,6.0,-999.0,69,-99.99,,,-99.99,,2013-02-06 22:52:00,
2013-02-06 15:01:00,52.0,42.0,29.96,South,169,6.0,-999.0,69,-99.99,,,-99.99,,2013-02-06 23:01:00,
2013-02-06 15:11:00,52.0,42.0,29.96,South,169,6.0,-999.0,69,-99.99,,,-99.99,,2013-02-06 23:11:00,
2013-02-06 15:21:00,52.0,42.0,29.96,South,178,5.0,-999.0,68,-99.99,,,-99.99,,2013-02-06 23:21:00,
2013-02-06 15:31:00,52.0,42.0,29.96,SW,221,5.0,-999.0,69,-99.99,,,-99.99,,2013-02-06 23:31:00,
2013-02-06 15:42:00,52.0,42.0,29.96,SW,221,5.0,-999.0,69,-99.99,,,-99.99,,2013-02-06 23:42:00,
2013-02-06 15:52:00,52.0,42.0,29.96,SW,221,5.0,-999.0,69,-99.99,,,-99.99,,2013-02-06 23:52:00,
2013-02-06 16:01:00,51.0,42.0,29.95,SSW,194,5.0,-999.0,70,-99.99,,,-99.99,,2013-02-07 00:01:00,
2013-02-06 16:11:00,51.0,42.0,29.95,SSW,194,5.0,-999.0,70,-99.99,,,-99.99,,2013-02-07 00:11:00,
2013-02-06 16:21:00,51.0,41.0,29.93,SSW,194,4.0,-999.0,69,-99.99,,,-99.99,,2013-02-07 00:21:00,
2013-02-06 16:31:00,51.0,42.0,29.93,South,174,4.0,-999.0,70,-99.99,,,-99.99,,2013-02-07 00:31:00,
2013-02-06 16:41:00,51.0,42.0,29.93,South,174,4.0,-999.0,70,-99.99,,,-99.99,,2013-02-07 00:41:00,
2013-02-06 16:52:00,51.0,42.0,29.92,WSW,246,2.0,-999.0,71,-99.99,,,-99.99,,2013-02-07 00:52:00,
2013-02-06 17:01:00,51.0,42.0,29.92,SW,228,2.0,-999.0,70,-99.99,,,-99.99,,2013-02-07 01:01:00,
2013-02-06 17:11:00,51.0,42.0,29.92,SW,228,2.0,-999.0,70,-99.99,,,-99.99,,2013-02-07 01:11:00,
2013-02-06 17:21:00,50.0,41.0,29.91,SW,231,2.0,-999.0,71,-99.99,,,-99.99,,2013-02-07 01:21:00,
2013-02-06 17:31:00,50.0,41.0,29.91,SW,231,2.0,-999.0,71,-99.99,,,-99.99,,2013-02-07 01:31:00,
2013-02-06 17:41:00,50.0,41.0,29.91,SW,231,2.0,-999.0,71,-99.99,,,-99.99,,2013-02-07 01:41:00,
2013-02-06 17:52:00,50.0,42.0,29.91,WSW,243,1.0,-999.0,73,-99.99,,,-99.99,,2013-02-07 01:52:00,
2013-02-06 18:01:00,49.0,42.0,29.91,WSW,255,2.0,-999.0,76,-99.99,,,-99.99,,2013-02-07 02:01:00,
2013-02-06 18:11:00,49.0,42.0,29.91,WSW,255,2.0,-999.0,76,-99.99,,,-99.99,,2013-02-07 02:11:00,
2013-02-06 18:21:00,48.0,43.0,29.91,SW,232,2.0,-999.0,82,-99.99,,,-99.99,,2013-02-07 02:21:00,
2013-02-06 18:31:00,48.0,43.0,29.91,SW,232,2.0,-999.0,82,-99.99,,,-99.99,,2013-02-07 02:31:00,
2013-02-06 18:41:00,48.0,43.0,29.91,SW,232,2.0,-999.0,82,-99.99,,,-99.99,,2013-02-07 02:41:00,
2013-02-06 18:51:00,48.0,43.0,29.91,SW,232,2.0,-999.0,82,-99.99,,,-99.99,,2013-02-07 02:51:00,
2013-02-06 19:01:00,47.0,41.0,29.89,SSE,155,4.0,-999.0,78,-99.99,,,-99.99,,2013-02-07 03:01:00,
2013-02-06 19:11:00,47.0,41.0,29.89,SSE,155,4.0,-999.0,78,-99.99,,,-99.99,,2013-02-07 03:11:00,
2013-02-06 19:21:00,47.0,41.0,29.88,South,181,2.0,-999.0,78,-99.99,,,-99.99,,2013-02-07 03:21:00,
2013-02-06 19:31:00,47.0,41.0,29.87,SE,138,2.0,-999.0,79,-99.99,,,-99.99,,2013-02-07 03:31:00,
2013-02-06 19:41:00,47.0,41.0,29.87,SE,138,2.0,-999.0,79,-99.99,,,-99.99,,2013-02-07 03:41:00,
2013-02-06 19:52:00,47.0,41.0,29.87,SE,138,2.0,-999.0,79,-99.99,,,-99.99,,2013-02-07 03:52:00,
2013-02-06 20:01:00,47.0,41.0,29.87,SE,138,2.0,-999.0,79,-99.99,,,-99.99,,2013-02-07 04:01:00,
2013-02-06 20:22:00,47.0,41.0,29.85,SSE,153,2.0,-999.0,80,-99.99,,,-99.99,,2013-02-07 04:22:00,
2013-02-06 20:32:00,47.0,41.0,29.84,South,169,2.0,-999.0,80,-99.99,,,-99.99,,2013-02-07 04:32:00,
2013-02-06 20:42:00,47.0,41.0,29.84,South,169,2.0,-999.0,80,-99.99,,,-99.99,,2013-02-07 04:42:00,
2013-02-06 20:53:00,47.0,41.0,29.84,South,181,3.0,-999.0,79,-99.99,,,-99.99,,2013-02-07 04:53:00,
2013-02-06 21:01:00,47.0,41.0,29.83,SSE,160,2.0,-999.0,79,-99.99,,,-99.99,,2013-02-07 05:01:00,
2013-02-06 21:11:00,47.0,41.0,29.83,SSE,160,2.0,-999.0,79,-99.99,,,-99.99,,2013-02-07 05:11:00,
2013-02-06 21:21:00,47.0,42.0,29.84,South,186,1.0,-999.0,83,-99.99,,,-99.99,,2013-02-07 05:21:00,
2013-02-06 21:31:00,47.0,42.0,29.84,South,186,1.0,-999.0,83,-99.99,,,-99.99,,2013-02-07 05:31:00,
2013-02-06 21:42:00,47.0,42.0,29.84,South,186,1.0,-999.0,83,-99.99,,,-99.99,,2013-02-07 05:42:00,
2013-02-06 21:52:00,46.0,42.0,29.84,WSW,250,1.0,-999.0,85,-99.99,,,-99.99,,2013-02-07 05:52:00,
2013-02-06 22:01:00,46.0,42.0,29.85,West,264,1.0,-999.0,86,-99.99,,,-99.99,,2013-02-07 06:01:00,
2013-02-06 22:11:00,46.0,42.0,29.85,West,264,1.0,-999.0,86,-99.99,,,-99.99,,2013-02-07 06:11:00,
2013-02-06 22:22:00,46.0,41.0,29.87,SW,225,5.0,-999.0,84,-99.99,,,-99.99,,2013-02-07 06:22:00,
2013-02-06 22:31:00,46.0,42.0,29.88,WNW,284,3.0,-999.0,86,-99.99,,,-99.99,,2013-02-07 06:31:00,
2013-02-06 22:42:00,46.0,42.0,29.88,WNW,284,3.0,-999.0,86,-99.99,,,-99.99,,2013-02-07 06:42:00,
2013-02-06 22:52:00,45.0,41.0,29.90,North,355,2.0,-999.0,86,-99.99,,,-99.99,,2013-02-07 06:52:00,
2013-02-06 23:01:00,44.0,40.0,29.90,West,262,1.0,-999.0,86,-99.99,,,-99.99,,2013-02-07 07:01:00,
2013-02-06 23:11:00,43.0,40.0,29.91,SSW,200,0.0,-999.0,88,-99.99,,,-99.99,,2013-02-07 07:11:00,
2013-02-06 23:21:00,43.0,40.0,29.91,SSW,200,0.0,-999.0,88,-99.99,,,-99.99,,2013-02-07 07:21:00,
2013-02-06 23:31:00,43.0,40.0,29.91,South,172,1.0,-999.0,89,-99.99,,,-99.99,,2013-02-07 07:31:00,
2013-02-06 23:41:00,43.0,40.0,29.91,South,172,1.0,-999.0,89,-99.99,,,-99.99,,2013-02-07 07:41:00,
2013-02-06 23:52:00,42.0,39.0,29.92,SSW,211,2.0,-999.0,88,-99.99,,,-99.99,,2013-02-07 07:52:00,